Starlink 35722

operational
NORAD ID: 66219 Int'l Des: 2025-244 Owner: SPXS Country: US Constellation: starlink
NOTLE

Starlink 35722について

説明を読み込み中...

リアルタイム位置

3D地球を読み込み中...

次回通過

高度履歴

Altitude vs Time

uPlot chart will show altitude changes over time

軌道要素

1 66219C 25244N 25301.73659722 .02969600 00000+0 42364-2 0 3012
2 66219 53.1570 134.0990 0010901 273.6195 318.2059 16.01826318 12
Epoch: Oct 28, 2025 • Age: 81 hours

現在のステータス

高度 214.1 km
速度 7.78 km/s
衛星直下点 -34.86°S, 78.95°W
打ち上げ日 Oct 28, 2025
運用期間 3 days
タイプ internet

技術仕様

分類 Payload
質量 575.00 kg
乾燥質量 530.00 kg
総質量 575.00 kg
長さ 0.30 m
直径 4.10 m
スパン 29.00 m
形状 Box + pan
製造者 SPXS
バスタイプ Starlink V2MO
フェーズステータス In Orbit
所有者/国 SPXS/US

大規模コンステレーション

Loading constellations...